TimeCDT,TemperatureF,Dew PointF,Humidity,Sea Level PressureIn,VisibilityMPH,Wind Direction,Wind SpeedMPH,Gust SpeedMPH,PrecipitationIn,Events,Conditions,WindDirDegrees,DateUTC
12:15 AM,37.4,35.6,93,29.90,7.0,ENE,9.2,-,N/A,,Scattered Clouds,70,2013-03-23 05:15:00
12:55 AM,35.6,33.8,93,29.88,7.0,ENE,9.2,-,N/A,,Scattered Clouds,70,2013-03-23 05:55:00
1:15 AM,35.6,33.8,93,29.87,7.0,NE,9.2,-,N/A,,Mostly Cloudy,50,2013-03-23 06:15:00
1:35 AM,35.6,33.8,93,29.88,7.0,NE,8.1,-,N/A,,Overcast,50,2013-03-23 06:35:00
1:55 AM,37.4,35.6,93,29.87,7.0,NE,10.4,-,N/A,,Overcast,50,2013-03-23 06:55:00
2:15 AM,37.4,35.6,93,29.87,7.0,NE,10.4,-,N/A,,Overcast,50,2013-03-23 07:15:00
2:35 AM,37.4,35.6,93,29.87,7.0,ENE,11.5,-,N/A,,Overcast,60,2013-03-23 07:35:00
2:55 AM,37.4,35.6,93,29.85,7.0,NE,12.7,-,N/A,,Overcast,50,2013-03-23 07:55:00
3:15 AM,37.4,35.6,93,29.85,7.0,NE,13.8,-,N/A,,Overcast,40,2013-03-23 08:15:00
3:35 AM,37.4,35.6,93,29.85,7.0,NNE,10.4,-,N/A,,Overcast,30,2013-03-23 08:35:00
3:55 AM,37.4,35.6,93,29.84,5.0,NE,12.7,-,N/A,,Overcast,50,2013-03-23 08:55:00
4:15 AM,37.4,35.6,93,29.83,5.0,NE,12.7,-,N/A,,Overcast,40,2013-03-23 09:15:00
4:35 AM,37.4,35.6,93,29.84,4.0,NE,11.5,-,N/A,,Overcast,50,2013-03-23 09:35:00
4:55 AM,35.6,35.6,100,29.84,4.0,NE,9.2,-,N/A,,Overcast,50,2013-03-23 09:55:00
5:15 AM,35.6,35.6,100,29.85,4.0,NE,8.1,-,N/A,,Overcast,40,2013-03-23 10:15:00
5:35 AM,35.6,35.6,100,29.85,3.0,ENE,9.2,-,N/A,,Overcast,60,2013-03-23 10:35:00
5:55 AM,35.6,35.6,100,29.85,3.0,NE,8.1,-,N/A,,Overcast,50,2013-03-23 10:55:00
6:17 AM,37.4,35.6,93,29.85,3.0,NNE,12.7,-,N/A,,Overcast,30,2013-03-23 11:17:00
7:50 AM,37.4,37.4,100,29.86,2.0,NE,11.5,-,N/A,,Overcast,40,2013-03-23 12:50:00
8:50 AM,37.4,37.4,100,29.87,3.0,ENE,11.5,-,N/A,,Overcast,60,2013-03-23 13:50:00
9:50 AM,37.4,37.4,100,29.88,3.0,NE,12.7,-,N/A,,Overcast,40,2013-03-23 14:50:00
11:50 AM,39.2,39.2,100,29.86,5.0,NNE,16.1,-,N/A,,Overcast,30,2013-03-23 16:50:00
12:55 PM,39.2,37.4,93,29.86,10.0,NE,11.5,-,N/A,,Overcast,40,2013-03-23 17:55:00
1:50 PM,39.2,37.4,93,29.82,10.0,NNE,9.2,-,N/A,,Overcast,30,2013-03-23 18:50:00
2:50 PM,39.2,37.4,93,29.79,7.0,NNE,11.5,-,N/A,,Overcast,30,2013-03-23 19:50:00
4:50 PM,39.2,37.4,93,29.78,3.0,North,17.3,-,N/A,,Overcast,350,2013-03-23 21:50:00
5:50 PM,37.4,37.4,100,29.80,1.8,North,17.3,-,N/A,,Overcast,350,2013-03-23 22:50:00
6:50 PM,37.4,37.4,100,29.76,3.0,NNE,17.3,-,N/A,,Overcast,20,2013-03-23 23:50:00
7:50 PM,37.4,35.6,93,29.77,5.0,North,17.3,29.9,N/A,,Overcast,360,2013-03-24 00:50:00
9:15 PM,35.6,33.8,93,29.86,7.0,North,15.0,23.0,N/A,,Overcast,360,2013-03-24 02:15:00
9:35 PM,35.6,33.8,93,29.84,10.0,North,17.3,24.2,N/A,,Overcast,10,2013-03-24 02:35:00
9:55 PM,35.6,33.8,93,29.89,10.0,North,12.7,20.7,N/A,,Overcast,10,2013-03-24 02:55:00
10:15 PM,35.6,33.8,93,29.87,7.0,North,15.0,-,N/A,,Overcast,10,2013-03-24 03:15:00
10:35 PM,33.8,33.8,100,29.87,5.0,North,15.0,-,N/A,,Light Drizzle,350,2013-03-24 03:35:00
10:55 PM,33.8,33.8,100,29.89,3.0,NNW,12.7,-,N/A,Snow,Light Snow,340,2013-03-24 03:55:00
11:15 PM,33.8,32.0,93,29.91,2.0,NW,12.7,-,N/A,Snow-Thunderstorm,Light Thunderstorms and Snow,310,2013-03-24 04:15:00
11:35 PM,33.8,32.0,93,29.92,1.5,NW,11.5,18.4,N/A,Snow,Light Snow,320,2013-03-24 04:35:00
11:55 PM,33.8,32.0,93,29.91,1.8,NW,13.8,20.7,0.01,Snow,Light Snow,320,2013-03-24 04:55:00